H1 CPF 2 NER 2022 11 3 9 307 01 glonass138 H2 1805301 9138 43508 2022 11 3 0 0 0 2022 11 6 23 45 0 900 1 1 0 0 0 1 H9 10 0 59886 0.00000 0 2562228.798 -19927711.296 -15692610.355 10 0 59886 900.00000 0 3023518.442 -17900926.543 -17900172.534 10 0 59886 1800.00000 0 3718203.171 -15678465.654 -19759537.829 10 0 59886 2700.00000 0 4657193.903 -13325522.161 -21234626.519 10 0 59886 3600.00000 0 5838965.339 -10909870.411 -22296855.524 10 0 59886 4500.00000 0 7249419.710 -8499188.194 -22925686.941 10 0 59886 5400.00000 0 8862291.342 -6158401.121 -23109018.446 10 0 59886 6300.00000 0 10640075.238 -3947159.062 -22843408.901 10 0 59886 7200.00000 0 12535440.865 -1917549.060 -22134135.617 10 0 59886 8100.00000 0 14493072.177 -112138.783 -20995083.012 10 0 59886 9000.00000 0 16451857.217 1437569.539 -19448465.395 10 0 59886 9900.00000 0 18347336.073 2712211.944 -17524389.735 10 0 59886 10800.00000 0 20114305.343 3705119.526 -15260267.109 10 0 59886 11700.00000 0 21689470.831 4422337.878 -12700084.275 10 0 59886 12600.00000 0 23014037.996 4882110.192 -9893549.455 10 0 59886 13500.00000 0 24036132.473 5113847.382 -6895128.691 10 0 59886 14400.00000 0 24712949.823 5156629.917 -3762991.252 10 0 59886 15300.00000 0 25012544.969 5057305.486 -557884.335 10 0 59886 16200.00000 0 24915186.711 4868263.438 2658041.309 10 0 59886 17100.00000 0 24414220.782 4644980.404 5822432.318 10 0 59886 18000.00000 0 23516405.358 4443440.943 8873937.047 10 0 59886 18900.00000 0 22241704.860 4317542.232 11753390.200 10 0 59886 19800.00000 0 20622550.396 4316592.446 14404955.104 10 0 59886 20700.00000 0 18702597.361 4483008.410 16777201.735 10 0 59886 21600.00000 0 16535031.485 4850309.822 18824100.048 10 0 59886 22500.00000 0 14180493.267 5441494.906 20505909.807 10 0 59886 23400.00000 0 11704706.549 6267866.455 21789950.034 10 0 59886 24300.00000 0 9175909.025 7328358.521 22651233.592 10 0 59886 25200.00000 0 6662190.657 8609393.217 23072954.828 10 0 59886 26100.00000 0 4228849.826 10085275.078 23046820.840 10 0 59886 27000.00000 0 1935876.244 11719108.093 22573219.805 10 0 59886 27900.00000 0 -164335.473 13464198.753 21661222.614 10 0 59886 28800.00000 0 -2028947.002 15265888.037 20328417.104 10 0 59886 29700.00000 0 -3626231.116 17063737.173 18600577.208 10 0 59886 30600.00000 0 -4936655.674 18793976.900 16511172.415 10 0 59886 31500.00000 0 -5953451.713 20392118.409 14100726.078 10 0 59886 32400.00000 0 -6682642.249 21795616.902 11416034.113 10 0 59886 33300.00000 0 -7142530.878 22946475.911 8509258.549 10 0 59886 34200.00000 0 -7362672.117 23793682.475 5436913.258 10 0 59886 35100.00000 0 -7382367.513 24295369.934 2258761.528 10 0 59886 36000.00000 0 -7248751.819 24420616.332 -963352.690 10 0 59886 36900.00000 0 -7014551.130 24150801.559 -4166716.354 10 0 59886 37800.00000 0 -6735609.099 23480465.075 -7288977.174 10 0 59886 38700.00000 0 -6468287.308 22417627.233 -10269366.713 10 0 59886 39600.00000 0 -6266851.285 20983560.134 -13049891.710 10 0 59886 40500.00000 0 -6180954.202 19212017.393 -15576469.480 10 0 59886 41400.00000 0 -6253325.969 17147955.203 -17799984.556 10 0 59886 42300.00000 0 -6517766.414 14845798.677 -19677245.478 10 0 59886 43200.00000 0 -6997528.076 12367326.478 -21171823.088 10 0 59886 44100.00000 0 -7704157.304 9779262.621 -22254754.271 10 0 59886 45000.00000 0 -8636842.735 7150676.378 -22905098.001 10 0 59886 45900.00000 0 -9782298.581 4550298.749 -23110333.650 10 0 59886 46800.00000 0 -11115187.648 2043867.037 -22866594.730 10 0 59886 47700.00000 0 -12599066.169 -308392.529 -22178734.396 10 0 59886 48600.00000 0 -14187810.819 -2454040.405 -21060222.244 10 0 59886 49500.00000 0 -15827468.160 -4350364.288 -19532875.062 10 0 59886 50400.00000 0 -17458449.153 -5965905.412 -17626427.177 10 0 59886 51300.00000 0 -19017977.115 -7281508.864 -15377949.023 10 0 59886 52200.00000 0 -20442686.959 -8290856.080 -12831125.209 10 0 59886 53100.00000 0 -21671267.218 -9000459.109 -10035406.068 10 0 59886 54000.00000 0 -22647034.599 -9429118.771 -7045048.939 10 0 59886 54900.00000 0 -23320333.544 -9606871.000 -3918067.549 10 0 59886 55800.00000 0 -23650660.504 -9573466.970 -715109.689 10 0 59886 56700.00000 0 -23608424.070 -9376451.977 2501715.274 10 0 59886 57600.00000 0 -23176267.228 -9068924.750 5670036.542 10 0 59886 58500.00000 0 -22349896.222 -8707072.074 8728426.552 10 0 59886 59400.00000 0 -21138381.041 -8347582.971 11617587.053 10 0 59886 60300.00000 0 -19563914.507 -8045051.574 14281493.902 10 0 59886 61200.00000 0 -17661039.450 -7849478.222 16668478.663 10 0 59886 62100.00000 0 -15475375.483 -7803974.121 18732226.470 10 0 59886 63000.00000 0 -13061897.553 -7942766.389 20432671.289 10 0 59886 63900.00000 0 -10482837.038 -8289587.677 21736771.587 10 0 59886 64800.00000 0 -7805291.629 -8856518.651 22619151.808 10 0 59886 65700.00000 0 -5098642.221 -9643332.718 23062597.469 10 0 59886 66600.00000 0 -2431883.116 -10637371.557 23058394.300 10 0 59886 67500.00000 0 129024.603 -11813957.973 22606504.690 10 0 59886 68400.00000 0 2523667.531 -13137330.211 21715577.579 10 0 59886 69300.00000 0 4699458.414 -14562060.049 20402790.880 10 0 59886 70200.00000 0 6613584.441 -16034896.642 18693528.642 10 0 59886 71100.00000 0 8234544.722 -17496960.037 16620898.139 10 0 59886 72000.00000 0 9543212.989 -18886193.182 14225095.314 10 0 59886 72900.00000 0 10533381.452 -20139969.966 11552629.958 10 0 59886 73800.00000 0 11211763.301 -21197749.771 8655424.959 10 0 59886 74700.00000 0 11597454.068 -22003666.386 5589806.817 10 0 59886 75600.00000 0 11720875.073 -22508941.588 2415407.020 10 0 59886 76500.00000 0 11622244.210 -22674020.583 -806004.040 10 0 59886 77400.00000 0 11349639.535 -22470338.090 -4011727.112 10 0 59886 78300.00000 0 10956738.666 -21881639.359 -7139363.638 10 0 59886 79200.00000 0 10500330.900 -20904799.304 -10128039.757 10 0 59886 80100.00000 0 10037708.693 -19550104.317 -12919599.774 10 0 59886 81000.00000 0 9624050.232 -17840984.284 -15459744.824 10 0 59886 81900.00000 0 9309905.035 -15813205.683 -17699093.888 10 0 59886 82800.00000 0 9138889.886 -13513559.606 -19594145.896 10 0 59886 83700.00000 0 9145693.110 -10998099.807 -21108124.214 10 0 59886 84600.00000 0 9354471.845 -8330004.628 -22211687.292 10 0 59886 85500.00000 0 9777709.960 -5577152.390 -22883492.167 10 0 59887 0.00000 0 10415584.500 -2809511.570 -23110600.691 10 0 59887 900.00000 0 11255867.435 -96452.758 -22888721.454 10 0 59887 1800.00000 0 12274365.508 2495902.471 -22222283.434 10 0 59887 2700.00000 0 13435880.554 4907191.394 -21124341.102 10 0 59887 3600.00000 0 14695648.858 7085071.770 -19616313.104 10 0 59887 4500.00000 0 16001199.299 8987144.099 -17727560.233 10 0 59887 5400.00000 0 17294552.276 10582455.951 -15494811.093 10 0 59887 6300.00000 0 18514667.277 11852527.560 -12961446.667 10 0 59887 7200.00000 0 19600036.555 12791857.644 -10176657.603 10 0 59887 8100.00000 0 20491316.360 13407890.211 -7194490.430 10 0 59887 9000.00000 0 21133885.508 13720445.390 -4072800.930 10 0 59887 9900.00000 0 21480224.082 13760639.610 -872134.837 10 0 59887 10800.00000 0 21492012.518 13569341.715 2345442.695 10 0 59887 11700.00000 0 21141862.943 13195230.837 5517546.364 10 0 59887 12600.00000 0 20414609.924 12692538.398 8582675.640 10 0 59887 13500.00000 0 19308106.160 12118569.722 11481402.204 10 0 59887 14400.00000 0 17833489.183 11531109.806 14157517.228 10 0 59887 15300.00000 0 16014907.188 10985822.534 16559116.483 10 0 59887 16200.00000 0 13888714.527 10533752.769 18639602.724 10 0 59887 17100.00000 0 11502169.289 10219036.402 20358586.340 10 0 59887 18000.00000 0 8911686.116 10076914.667 21682667.231 10 0 59887 18900.00000 0 6180715.646 10132136.365 22586083.131 10 0 59887 19800.00000 0 3377337.383 10397815.496 23051212.119 10 0 59887 20700.00000 0 571664.782 10874792.857 23068919.553 10 0 59887 21600.00000 0 -2166830.966 11551529.261 22638742.608 10 0 59887 22500.00000 0 -4771968.449 12404535.941 21768908.355 10 0 59887 23400.00000 0 -7183365.672 13399325.215 20476184.369 10 0 59887 24300.00000 0 -9348708.266 14491842.760 18785563.879 10 0 59887 25200.00000 0 -11225682.353 15630322.451 16729790.547 10 0 59887 26100.00000 0 -12783491.780 16757486.706 14348731.091 10 0 59887 27000.00000 0 -14003896.592 17813000.364 11688607.029 10 0 59887 27900.00000 0 -14881729.489 18736074.997 8801099.717 10 0 59887 28800.00000 0 -15424868.775 19468113.634 5742345.723 10 0 59887 29700.00000 0 -15653669.315 19955283.719 2571842.061 10 0 59887 30600.00000 0 -15599875.997 20150908.747 -648717.177 10 0 59887 31500.00000 0 -15305066.236 20017576.332 -3856649.306 10 0 59887 32400.00000 0 -14818688.301 19528872.411 -6989512.264 10 0 59887 33300.00000 0 -14195779.522 18670667.013 -9986329.503 10 0 59887 34200.00000 0 -13494462.134 17441896.201 -12788785.526 10 0 59887 35100.00000 0 -12773323.956 15854806.297 -15342367.789 10 0 59887 36000.00000 0 -12088795.839 13934649.368 -17597432.018 10 0 59887 36900.00000 0 -11492637.675 11718842.412 -19510169.614 10 0 59887 37800.00000 0 -11029639.836 9255625.294 -21043458.292 10 0 59887 38700.00000 0 -10735637.360 6602273.523 -22167579.622 10 0 59887 39600.00000 0 -10635920.618 3822940.647 -22860790.004 10 0 59887 40500.00000 0 -10744109.081 986220.174 -23109734.769 10 0 59887 41400.00000 0 -11061535.067 -1837471.633 -22909698.210 10 0 59887 42300.00000 0 -11577162.704 -4578583.541 -22264685.563 10 0 59887 43200.00000 0 -12268044.796 -7171076.669 -21187336.183 10 0 59887 44100.00000 0 -13100297.761 -9554922.343 -19698670.214 10 0 59887 45000.00000 0 -14030553.124 -11678347.777 -17827674.174 10 0 59887 45900.00000 0 -15007824.223 -13499737.718 -15610733.765 10 0 59887 46800.00000 0 -15975709.517 -14989114.497 -13090924.948 10 0 59887 47700.00000 0 -16874839.809 -16129136.461 -10317177.035 10 0 59887 48600.00000 0 -17645466.616 -16915574.846 -7343323.863 10 0 59887 49500.00000 0 -18230082.959 -17357250.789 -4227061.195 10 0 59887 50400.00000 0 -18575966.472 -17475436.563 -1028830.446 10 0 59887 51300.00000 0 -18637537.981 -17302747.413 2189349.880 10 0 59887 52200.00000 0 -18378436.309 -16881571.580 5365082.603 10 0 59887 53100.00000 0 -17773221.935 -16262105.173 8436797.011 10 0 59887 54000.00000 0 -16808637.578 -15500075.051 11344937.648 10 0 59887 54900.00000 0 -15484372.198 -14654245.731 14033114.001 10 0 59887 55800.00000 0 -13813295.613 -13783815.197 16449189.051 10 0 59887 56700.00000 0 -11821152.895 -12945809.058 18546286.071 10 0 59887 57600.00000 0 -9545730.025 -12192582.371 20283694.583 10 0 59887 58500.00000 0 -7035524.319 -11569533.910 21627658.320 10 0 59887 59400.00000 0 -4347973.466 -11113128.749 22552030.362 10 0 59887 60300.00000 0 -1547315.270 -10849312.153 23038782.973 10 0 59887 61200.00000 0 1297834.393 -10792381.546 23078362.348 10 0 59887 62100.00000 0 4117086.298 -10944364.279 22669881.199 10 0 59887 63000.00000 0 6840958.436 -11294927.953 21821145.056 10 0 59887 63900.00000 0 9403522.058 -11821827.820 20548511.058 10 0 59887 64800.00000 0 11744904.132 -12491873.380 18876581.113 10 0 59887 65700.00000 0 13813542.661 -13262374.448 16837734.349 10 0 59887 66600.00000 0 15568101.173 -14083006.614 14471506.929 10 0 59887 67500.00000 0 16978962.674 -14898018.106 11823830.343 10 0 59887 68400.00000 0 18029240.658 -15648685.273 8946142.225 10 0 59887 69300.00000 0 18715264.789 -16275912.918 5894386.638 10 0 59887 70200.00000 0 19046521.052 -16722869.158 2727923.189 10 0 59887 71100.00000 0 19045049.162 -16937542.553 -491633.511 10 0 59887 72000.00000 0 18744323.119 -16875112.241 -3701620.687 10 0 59887 72900.00000 0 18187662.894 -16500029.498 -6839556.155 10 0 59887 73800.00000 0 17426245.282 -15787721.340 -9844364.003 10 0 59887 74700.00000 0 16516799.077 -14725842.855 -12657572.108 10 0 59887 75600.00000 0 15519083.150 -13315024.231 -15224457.211 10 0 59887 76500.00000 0 14493255.109 -11569080.008 -17495114.484 10 0 59887 77400.00000 0 13497242.629 -9514671.069 -19425430.191 10 0 59887 78300.00000 0 12584229.071 -7190433.073 -20977938.447 10 0 59887 79200.00000 0 11800359.756 -4645607.533 -22122545.612 10 0 59887 80100.00000 0 11182765.512 -1938232.654 -22837108.702 10 0 59887 81000.00000 0 10757986.286 867030.698 -23107857.354 10 0 59887 81900.00000 0 10540860.423 3701347.564 -22929651.999 10 0 59887 82800.00000 0 10533925.402 6494330.353 -22306074.090 10 0 59887 83700.00000 0 10727354.158 9176724.769 -21249347.470 10 0 59887 84600.00000 0 11099428.628 11683049.395 -19780093.039 10 0 59887 85500.00000 0 11617529.658 13954080.122 -17926921.981 10 0 59888 0.00000 0 12239600.822 15939077.234 -15725875.923 10 0 59888 900.00000 0 12916024.329 17597664.889 -13219723.725 10 0 59888 1800.00000 0 13591828.886 18901283.492 -10457131.569 10 0 59888 2700.00000 0 14209137.489 19834159.525 -7491718.328 10 0 59888 3600.00000 0 14709751.199 20393751.053 -4381017.225 10 0 59888 4500.00000 0 15037760.415 20590652.757 -1185362.619 10 0 59888 5400.00000 0 15142073.633 20447965.531 2033276.517 10 0 59888 6300.00000 0 14978757.153 20000158.094 5212494.059 10 0 59888 7200.00000 0 14513087.089 19291469.157 8290652.039 10 0 59888 8100.00000 0 13721227.039 18373917.790 11208070.692 10 0 59888 9000.00000 0 12591460.330 17305005.809 13908180.511 10 0 59888 9900.00000 0 11124924.387 16145208.772 16338614.200 10 0 59888 10800.00000 0 9335815.371 14955360.801 18452217.855 10 0 59888 11700.00000 0 7251053.247 13794042.727 20207962.207 10 0 59888 12600.00000 0 4909419.845 12715082.833 21571736.668 10 0 59888 13500.00000 0 2360204.198 11765274.640 22517011.212 10 0 59888 14400.00000 0 -338590.151 10982407.139 23025353.537 10 0 59888 15300.00000 0 -3122402.970 10393689.878 23086791.534 10 0 59888 16200.00000 0 -5922552.282 10014638.924 22700013.903 10 0 59888 17100.00000 0 -8668846.787 9848470.570 21872404.614 10 0 59888 18000.00000 0 -11292268.409 9886028.640 20619909.847 10 0 59888 18900.00000 0 -13727614.470 10106248.910 18966739.170 10 0 59888 19800.00000 0 -15915990.290 10477141.716 16944905.675 10 0 59888 20700.00000 0 -17807048.623 10957251.977 14593613.047 10 0 59888 21600.00000 0 -19360882.719 11497535.516 11958500.484 10 0 59888 22500.00000 0 -20549493.778 12043572.777 9090759.402 10 0 59888 23400.00000 0 -21357771.172 12538026.321 6046138.702 10 0 59888 24300.00000 0 -21783944.234 12923237.797 2883857.865 10 0 59888 25200.00000 0 -21839486.586 13143853.723 -334550.712 10 0 59888 26100.00000 0 -21548477.266 13149367.849 -3546446.883 10 0 59888 27000.00000 0 -20946446.012 12896471.170 -6689311.025 10 0 59888 27900.00000 0 -20078752.141 12351108.690 -9701970.483 10 0 59888 28800.00000 0 -18998566.362 11490154.523 -12525799.050 10 0 59888 29700.00000 0 -17764541.762 10302633.244 -15105865.163 10 0 59888 30600.00000 0 -16438273.322 8790434.725 -17392005.668 10 0 59888 31500.00000 0 -15081654.088 6968491.514 -19339803.683 10 0 59888 32400.00000 0 -13754240.163 4864410.518 -20911451.426 10 0 59888 33300.00000 0 -12510735.886 2517573.951 -22076481.426 10 0 59888 34200.00000 0 -11398705.043 -22253.121 -22812352.357 10 0 59888 35100.00000 0 -10456603.937 -2696750.740 -23104878.857 10 0 59888 36000.00000 0 -9712218.190 -5441231.556 -22948497.838 10 0 59888 36900.00000 0 -9181567.850 -8187097.009 -22346366.961 10 0 59888 37800.00000 0 -8868325.508 -10864460.465 -21310294.211 10 0 59888 38700.00000 0 -8763770.453 -13404828.896 -19860500.564 10 0 59888 39600.00000 0 -8847279.465 -15743732.279 -18025220.885 10 0 59888 40500.00000 0 -9087332.401 -17823192.433 -15840151.052 10 0 59888 41400.00000 0 -9442989.233 -19593929.669 -13347752.149 10 0 59888 42300.00000 0 -9865775.628 -21017216.510 -10596425.209 10 0 59888 43200.00000 0 -10301897.101 -22066302.513 -7639572.369 10 0 59888 44100.00000 0 -10694688.099 -22727351.985 -4534562.430 10 0 59888 45000.00000 0 -10987192.620 -22999856.561 -1341620.728 10 0 59888 45900.00000 0 -11124767.449 -22896506.504 1877335.363 10 0 59888 46800.00000 0 -11057598.165 -22442527.039 5059892.956 10 0 59888 47700.00000 0 -10743021.767 -21674508.273 8144349.138 10 0 59888 48600.00000 0 -10147557.788 -20638778.273 11070902.276 10 0 59888 49500.00000 0 -9248561.978 -19389387.842 13782806.402 10 0 59888 50400.00000 0 -8035432.381 -17985791.554 16227466.525 10 0 59888 51300.00000 0 -6510316.226 -16490322.153 18357454.125 10 0 59888 52200.00000 0 -4688286.799 -14965563.823 20131423.602 10 0 59888 53100.00000 0 -2596981.465 -13471733.952 21514912.309 10 0 59888 54000.00000 0 -275714.303 -12064182.509 22481009.130 10 0 59888 54900.00000 0 2225901.481 -10791113.174 23010878.894 10 0 59888 55800.00000 0 4849765.779 -9691621.194 23094132.547 10 0 59888 56700.00000 0 7531464.873 -8794129.726 22729035.765 10 0 59888 57600.00000 0 10202717.127 -8115289.966 21922551.563 10 0 59888 58500.00000 0 12793990.775 -7659391.144 20690215.405 10 0 59888 59400.00000 0 15237186.083 -7418305.269 19055844.361 10 0 59888 60300.00000 0 17468271.100 -7371969.148 17051084.946 10 0 59888 61200.00000 0 19429761.516 -7489383.741 14714807.410 10 0 59888 62100.00000 0 21072941.310 -7730088.942 12092357.274 10 0 59888 63000.00000 0 22359731.253 -8046051.696 9234677.894 10 0 59888 63900.00000 0 23264126.643 -8383887.572 6197320.728 10 0 59888 64800.00000 0 23773143.679 -8687321.416 3039362.441 10 0 59888 65700.00000 0 23887234.413 -8899782.208 -177749.839 10 0 59888 66600.00000 0 23620152.666 -8967021.218 -3391401.881 10 0 59888 67500.00000 0 22998276.708 -8839641.282 -6539040.054 10 0 59888 68400.00000 0 22059417.630 -8475428.656 -9559398.397 10 0 59888 69300.00000 0 20851164.285 -7841387.262 -12393699.947 10 0 59888 70200.00000 0 19428835.433 -6915387.916 -14986807.966 10 0 59888 71100.00000 0 17853126.341 -5687361.522 -17288303.856 10 0 59888 72000.00000 0 16187549.896 -4159984.902 -19253470.166 10 0 59888 72900.00000 0 14495780.680 -2348829.498 -20844159.469 10 0 59888 73800.00000 0 12839014.171 -281966.018 -22029532.367 10 0 59888 74700.00000 0 11273452.155 2000958.823 -22786650.710 10 0 59888 75600.00000 0 9848019.579 4450135.206 -23100915.252 10 0 59888 76500.00000 0 8602407.891 7007434.081 -22966340.071 10 0 59888 77400.00000 0 7565525.837 9608605.332 -22385659.287 10 0 59888 78300.00000 0 6754421.236 12185739.108 -21370264.836 10 0 59888 79200.00000 0 6173717.358 14669888.327 -19939977.158 10 0 59888 80100.00000 0 5815585.918 16993743.834 -18122653.766 10 0 59888 81000.00000 0 5660256.205 19094251.616 -15953643.584 10 0 59888 81900.00000 0 5677037.507 20915064.067 -13475097.725 10 0 59888 82800.00000 0 5825810.639 22408724.030 -10735150.115 10 0 59888 83700.00000 0 6058924.825 23538491.636 -7786983.692 10 0 59888 84600.00000 0 6323419.300 24279738.685 -4687800.094 10 0 59888 85500.00000 0 6563475.566 24620853.280 -1497712.686 10 0 59889 0.00000 0 6722996.511 24563617.797 1721415.548 10 0 59889 900.00000 0 6748203.493 24123045.069 4907168.683 10 0 59889 1800.00000 0 6590141.527 23326680.386 7997781.654 10 0 59889 2700.00000 0 6206986.961 22213398.899 10933333.932 10 0 59889 3600.00000 0 5566059.896 20831748.993 13656905.885 10 0 59889 4500.00000 0 4645456.202 19237911.079 16115677.400 10 0 59889 5400.00000 0 3435229.766 17493357.072 18261947.665 10 0 59889 6300.00000 0 1938074.249 15662308.076 20054056.810 10 0 59889 7200.00000 0 169474.551 13809096.145 21457191.917 10 0 59889 8100.00000 0 -1842679.965 11995539.766 22444062.255 10 0 59889 9000.00000 0 -4059006.133 10278442.026 22995430.928 10 0 59889 9900.00000 0 -6430025.316 8707315.407 23100492.695 10 0 59889 10800.00000 0 -8897993.121 7322427.641 22757090.546 10 0 59889 11700.00000 0 -11399086.111 6153249.837 21971766.413 10 0 59889 12600.00000 0 -13865856.007 5217371.500 20759644.404 10 0 59889 13500.00000 0 -16229850.590 4519927.668 19144147.956 10 0 59889 14400.00000 0 -18424293.048 4053562.106 17156555.372 10 0 59889 15300.00000 0 -20386708.572 3798928.135 14835401.386 10 0 59889 16200.00000 0 -22061388.732 3725706.029 12225735.385 10 0 59889 17100.00000 0 -23401590.448 3794094.007 9378249.943 10 0 59889 18000.00000 0 -24371376.996 3956709.708 6348296.173 10 0 59889 18900.00000 0 -24947023.304 4160821.289 3194804.934 10 0 59889 19800.00000 0 -25117925.951 4350813.023 -20864.897 10 0 59889 20700.00000 0 -24886979.079 4470780.014 -3236127.951 10 0 59889 21600.00000 0 -24270400.200 4467140.847 -6388399.449 10 0 59889 22500.00000 0 -23297013.184 4291156.073 -9416322.878 10 0 59889 23400.00000 0 -22007018.986 3901244.428 -12260973.155 10 0 59889 24300.00000 0 -20450306.430 3264997.276 -14867010.843 10 0 59889 25200.00000 0 -18684374.910 2360804.786 -17183764.142 10 0 59889 26100.00000 0 -16771957.227 1179024.039 -19166216.994 10 0 59889 27000.00000 0 -14778443.206 -277361.088 -20775883.924 10 0 59889 27900.00000 0 -12769212.788 -1992616.817 -21981554.782 10 0 59889 28800.00000 0 -10806990.713 -3938678.759 -22759895.321 10 0 59889 29700.00000 0 -8949333.458 -6076096.470 -23095892.667 10 0 59889 30600.00000 0 -7246353.021 -8355464.079 -22983137.876 10 0 59889 31500.00000 0 -5738771.871 -10719277.444 -22423940.915 10 0 59889 32400.00000 0 -4456389.011 -13104140.695 -21429276.689 10 0 59889 33300.00000 0 -3417019.714 -15443230.574 -20018563.789 10 0 59889 34200.00000 0 -2625951.545 -17668916.284 -18219280.803 10 0 59889 35100.00000 0 -2075937.592 -19715426.315 -16066427.913 10 0 59889 36000.00000 0 -1747725.416 -21521451.771 -13601844.334 10 0 59889 36900.00000 0 -1611097.949 -23032578.342 -10873394.870 10 0 59889 37800.00000 0 -1626381.196 -24203446.252 -7934041.214 10 0 59889 38700.00000 0 -1746354.220 -24999548.774 -4840815.808 10 0 59889 39600.00000 0 -1918480.137 -25398594.853 -1653718.033 10 0 59889 40500.00000 0 -2087363.523 -25391379.558 1565446.082 10 0 59889 41400.00000 0 -2197330.148 -24982126.480 4754258.367 10 0 59889 42300.00000 0 -2195020.041 -24188288.197 7850894.166 10 0 59889 43200.00000 0 -2031884.214 -23039813.409 10795316.042 10 0 59889 44100.00000 0 -1666479.601 -21577911.526 13530432.695 10 0 59889 45000.00000 0 -1066465.128 -19853366.322 16003200.882 10 0 59889 45900.00000 0 -210214.398 -17924468.874 18165649.445 10 0 59889 46800.00000 0 912023.636 -15854655.723 19975806.083 10 0 59889 47700.00000 0 2297465.736 -13709950.308 21398509.286 10 0 59889 48600.00000 0 3930666.173 -11556313.704 22406090.187 10 0 59889 49500.00000 0 5783926.238 -9457014.392 22978911.395 10 0 59889 50400.00000 0 7818226.081 -7470125.960 23105752.446 10 0 59889 51300.00000 0 9984641.884 -5646256.331 22784034.319 10 0 59889 52200.00000 0 12226191.132 -4026602.529 22019878.261 10 0 59889 53100.00000 0 14480030.673 -2641411.724 20827997.132 10 0 59889 54000.00000 0 16679917.444 -1508912.382 19231420.551 10 0 59889 54900.00000 0 18758830.304 -634759.981 17261058.134 10 0 59889 55800.00000 0 20651644.194 -12020.343 14955108.301 10 0 59889 56700.00000 0 22297745.171 378308.922 12358323.177 10 0 59889 57600.00000 0 23643476.771 566261.016 9521143.054 10 0 59889 58500.00000 0 24644314.680 591390.629 6498716.819 10 0 59889 59400.00000 0 25266677.817 500856.952 3349827.281 10 0 59889 60300.00000 0 25489298.918 347180.798 135742.477 10 0 59889 61200.00000 0 25304096.217 185771.742 -3080983.949 10 0 59889 62100.00000 0 24716508.908 72331.196 -6237739.113 10 0 59889 63000.00000 0 23745281.901 60242.842 -9273079.073 10 0 59889 63900.00000 0 22421708.840 198062.358 -12127933.708 10 0 59889 64800.00000 0 20788365.458 527214.218 -14746763.828 10 0 59889 65700.00000 0 18897386.986 1079994.308 -17078647.198 10 0 59889 66600.00000 0 16808362.648 1877963.936 -19078271.673 10 0 59889 67500.00000 0 14585936.237 2930803.951 -20706816.005 10 0 59889 68400.00000 0 12297213.904 4235677.992 -21932701.287 10 0 59889 69300.00000 0 10009088.065 5777132.136 -22732198.874 10 0 59889 70200.00000 0 7785589.334 7527535.533 -23089883.639 10 0 59889 71100.00000 0 5685376.697 9448043.820 -22998924.613 10 0 59889 72000.00000 0 3759470.001 11490045.161 -22461208.198 10 0 59889 72900.00000 0 2049318.164 13597028.676 -21487292.394 10 0 59889 73800.00000 0 585282.191 15706797.508 -20096193.604 10 0 59889 74700.00000 0 -614405.380 17753934.411 -18315010.670 10 0 59889 75600.00000 0 -1544163.067 19672417.411 -16178393.745 10 0 59889 76500.00000 0 -2211045.157 21398276.872 -13727868.421 10 0 59889 77400.00000 0 -2634190.983 22872183.505 -11011028.259 10 0 59889 78300.00000 0 -2843763.597 24041859.851 -8080611.235 10 0 59889 79200.00000 0 -2879423.825 24864214.983 -4993477.836 10 0 59889 80100.00000 0 -2788405.044 25307113.680 -1809510.490 10 0 59889 81000.00000 0 -2623270.634 25350706.500 1409544.550 10 0 59889 81900.00000 0 -2439449.225 24988265.467 4601270.615 10 0 59889 82800.00000 0 -2292652.082 24226490.578 7703786.300 10 0 59889 83700.00000 0 -2236281.800 23085274.438 10656940.294 10 0 59889 84600.00000 0 -2318941.810 21596934.754 13403472.507 10 0 59889 85500.00000 0 -2582151.855 19804946.568 15890119.232 99